Time,TemperatureF,DewpointF,PressureIn,WindDirection,WindDirectionDegrees,WindSpeedMPH,WindSpeedGustMPH,Humidity,HourlyPrecipIn,Conditions,Clouds,dailyrainin,SoftwareType,DateUTC
2013-10-01 00:06:00,55.3,53.0,29.92,SW,229,1.0,4.0,90,0.00,,,0.00,weatherlink.com 1.10,2013-10-01 05:06:00,
2013-10-01 00:21:00,55.1,53.0,29.92,SW,229,2.0,3.0,91,0.00,,,0.00,weatherlink.com 1.10,2013-10-01 05:21:00,
2013-10-01 00:36:00,55.6,53.0,29.92,SW,217,2.0,4.0,92,0.00,,,0.00,weatherlink.com 1.10,2013-10-01 05:36:00,
2013-10-01 00:51:00,56.6,55.0,29.92,South,186,3.0,5.0,93,0.00,,,0.00,weatherlink.com 1.10,2013-10-01 05:51:00,
2013-10-01 01:06:00,57.5,56.0,29.92,SSW,207,5.0,6.0,93,0.00,,,0.00,weatherlink.com 1.10,2013-10-01 06:06:00,
2013-10-01 01:21:00,58.0,56.0,29.93,SSW,206,2.0,6.0,93,0.00,,,0.00,weatherlink.com 1.10,2013-10-01 06:21:00,
2013-10-01 01:36:00,57.2,55.0,29.94,WSW,251,2.0,4.0,91,0.00,,,0.00,weatherlink.com 1.10,2013-10-01 06:36:00,
2013-10-01 01:51:00,56.1,54.0,29.94,SW,231,1.0,3.0,92,0.00,,,0.00,weatherlink.com 1.10,2013-10-01 06:51:00,
2013-10-01 02:06:00,55.4,53.0,29.94,SW,232,1.0,3.0,92,0.00,,,0.00,weatherlink.com 1.10,2013-10-01 07:06:00,
2013-10-01 02:22:00,54.8,53.0,29.94,SW,232,0.0,1.0,92,0.00,,,0.00,weatherlink.com 1.10,2013-10-01 07:22:00,
2013-10-01 02:37:00,54.8,53.0,29.94,SW,232,0.0,1.0,93,0.00,,,0.00,weatherlink.com 1.10,2013-10-01 07:37:00,
2013-10-01 02:52:00,55.2,53.0,29.94,SW,232,2.0,2.0,93,0.00,,,0.00,weatherlink.com 1.10,2013-10-01 07:52:00,
2013-10-01 03:07:00,57.6,56.0,29.94,SW,217,3.0,5.0,95,0.00,,,0.00,weatherlink.com 1.10,2013-10-01 08:07:00,
2013-10-01 03:22:00,59.9,59.0,29.94,SW,217,4.0,10.0,95,0.00,,,0.00,weatherlink.com 1.10,2013-10-01 08:22:00,
2013-10-01 03:37:00,60.5,59.0,29.94,SW,222,4.0,7.0,95,0.00,,,0.00,weatherlink.com 1.10,2013-10-01 08:37:00,
2013-10-01 03:52:00,61.3,60.0,29.94,West,265,3.0,10.0,95,0.00,,,0.00,weatherlink.com 1.10,2013-10-01 08:52:00,
2013-10-01 04:07:00,61.7,60.0,29.94,WSW,245,7.0,10.0,94,0.00,,,0.00,weatherlink.com 1.10,2013-10-01 09:07:00,
2013-10-01 04:22:00,61.8,60.0,29.94,SW,229,4.0,9.0,94,0.00,,,0.00,weatherlink.com 1.10,2013-10-01 09:22:00,
2013-10-01 04:37:00,61.7,60.0,29.95,SSW,205,7.0,9.0,94,0.00,,,0.00,weatherlink.com 1.10,2013-10-01 09:37:00,
2013-10-01 04:52:00,61.7,60.0,29.95,SSW,203,5.0,9.0,94,0.00,,,0.00,weatherlink.com 1.10,2013-10-01 09:52:00,
2013-10-01 05:07:00,61.6,60.0,29.96,WSW,237,9.0,10.0,94,0.00,,,0.00,weatherlink.com 1.10,2013-10-01 10:07:00,
2013-10-01 05:22:00,61.7,60.0,29.95,SW,225,7.0,12.0,94,0.00,,,0.00,weatherlink.com 1.10,2013-10-01 10:22:00,
2013-10-01 05:37:00,61.9,61.0,29.96,SW,226,7.0,10.0,95,0.00,,,0.00,weatherlink.com 1.10,2013-10-01 10:37:00,
2013-10-01 05:52:00,62.0,61.0,29.96,WSW,238,8.0,12.0,95,0.00,,,0.00,weatherlink.com 1.10,2013-10-01 10:52:00,
2013-10-01 06:07:00,62.1,61.0,29.97,SW,226,3.0,12.0,95,0.00,,,0.00,weatherlink.com 1.10,2013-10-01 11:07:00,
2013-10-01 06:22:00,62.1,61.0,29.97,SW,234,5.0,10.0,95,0.00,,,0.00,weatherlink.com 1.10,2013-10-01 11:22:00,
2013-10-01 06:37:00,62.2,61.0,29.98,SW,234,5.0,11.0,95,0.00,,,0.00,weatherlink.com 1.10,2013-10-01 11:37:00,
2013-10-01 06:52:00,62.3,61.0,29.98,WSW,243,5.0,10.0,95,0.00,,,0.00,weatherlink.com 1.10,2013-10-01 11:52:00,
2013-10-01 07:08:00,62.4,61.0,29.98,SW,221,5.0,9.0,95,0.00,,,0.00,weatherlink.com 1.10,2013-10-01 12:08:00,
2013-10-01 07:22:00,62.6,61.0,29.98,SW,228,5.0,9.0,95,0.00,,,0.00,weatherlink.com 1.10,2013-10-01 12:22:00,
2013-10-01 07:37:00,62.8,61.0,29.98,SW,214,3.0,9.0,95,0.00,,,0.00,weatherlink.com 1.10,2013-10-01 12:37:00,
2013-10-01 07:53:00,63.0,62.0,29.98,SSW,208,7.0,10.0,95,0.00,,,0.00,weatherlink.com 1.10,2013-10-01 12:53:00,
2013-10-01 08:07:00,63.4,62.0,29.98,SW,230,6.0,8.0,95,0.00,,,0.00,weatherlink.com 1.10,2013-10-01 13:07:00,
2013-10-01 08:23:00,63.9,63.0,29.98,SW,222,5.0,9.0,95,0.00,,,0.00,weatherlink.com 1.10,2013-10-01 13:23:00,
2013-10-01 08:38:00,64.1,62.0,29.98,SSW,198,4.0,10.0,94,0.00,,,0.00,weatherlink.com 1.10,2013-10-01 13:38:00,
2013-10-01 08:53:00,64.6,63.0,29.98,SSW,213,9.0,10.0,93,0.00,,,0.00,weatherlink.com 1.10,2013-10-01 13:53:00,
2013-10-01 09:08:00,65.4,63.0,29.98,SW,234,5.0,11.0,92,0.00,,,0.00,weatherlink.com 1.10,2013-10-01 14:08:00,
2013-10-01 09:23:00,66.2,63.0,29.98,WSW,248,9.0,13.0,89,0.00,,,0.00,weatherlink.com 1.10,2013-10-01 14:23:00,
2013-10-01 09:38:00,67.0,63.0,29.98,SW,233,7.0,12.0,87,0.00,,,0.00,weatherlink.com 1.10,2013-10-01 14:38:00,
2013-10-01 09:53:00,68.3,63.0,29.99,West,267,9.0,14.0,84,0.00,,,0.00,weatherlink.com 1.10,2013-10-01 14:53:00,
2013-10-01 10:08:00,68.9,63.0,29.98,West,267,8.0,15.0,82,0.00,,,0.00,weatherlink.com 1.10,2013-10-01 15:08:00,
2013-10-01 10:23:00,69.9,64.0,29.98,SW,225,8.0,11.0,80,0.00,,,0.00,weatherlink.com 1.10,2013-10-01 15:23:00,
2013-10-01 10:38:00,70.3,63.0,29.98,WSW,238,10.0,15.0,78,0.00,,,0.00,weatherlink.com 1.10,2013-10-01 15:38:00,
2013-10-01 10:53:00,70.5,63.0,29.98,WSW,239,8.0,17.0,77,0.00,,,0.00,weatherlink.com 1.10,2013-10-01 15:53:00,
2013-10-01 11:08:00,72.1,63.0,29.98,WSW,253,9.0,15.0,74,0.00,,,0.00,weatherlink.com 1.10,2013-10-01 16:08:00,
2013-10-01 11:23:00,74.1,64.0,29.97,SW,215,9.0,14.0,70,0.00,,,0.00,weatherlink.com 1.10,2013-10-01 16:23:00,
2013-10-01 11:38:00,75.4,64.0,29.97,WSW,242,5.0,16.0,68,0.00,,,0.00,weatherlink.com 1.10,2013-10-01 16:38:00,
2013-10-01 11:53:00,75.9,63.0,29.96,West,264,10.0,16.0,65,0.00,,,0.00,weatherlink.com 1.10,2013-10-01 16:53:00,
2013-10-01 12:08:00,76.3,64.0,29.96,WSW,240,12.0,17.0,65,0.00,,,0.00,weatherlink.com 1.10,2013-10-01 17:08:00,
2013-10-01 12:23:00,77.0,63.0,29.96,SSW,202,10.0,18.0,62,0.00,,,0.00,weatherlink.com 1.10,2013-10-01 17:23:00,
2013-10-01 12:38:00,75.7,63.0,29.96,WSW,247,5.0,18.0,65,0.00,,,0.00,weatherlink.com 1.10,2013-10-01 17:38:00,
2013-10-01 12:53:00,77.6,64.0,29.96,WSW,252,13.0,14.0,63,0.00,,,0.00,weatherlink.com 1.10,2013-10-01 17:53:00,
2013-10-01 13:08:00,78.8,64.0,29.95,WSW,237,15.0,17.0,60,0.00,,,0.00,weatherlink.com 1.10,2013-10-01 18:08:00,
2013-10-01 13:23:00,79.7,64.0,29.95,SSW,200,9.0,16.0,59,0.00,,,0.00,weatherlink.com 1.10,2013-10-01 18:23:00,
2013-10-01 13:38:00,79.2,64.0,29.94,West,261,6.0,13.0,60,0.00,,,0.00,weatherlink.com 1.10,2013-10-01 18:38:00,
2013-10-01 13:53:00,77.9,64.0,29.94,West,277,8.0,18.0,62,0.00,,,0.00,weatherlink.com 1.10,2013-10-01 18:53:00,
2013-10-01 14:09:00,78.8,64.0,29.94,WSW,250,7.0,17.0,61,0.00,,,0.00,weatherlink.com 1.10,2013-10-01 19:09:00,
2013-10-01 14:23:00,79.8,64.0,29.93,SW,227,8.0,16.0,59,0.00,,,0.00,weatherlink.com 1.10,2013-10-01 19:23:00,
2013-10-01 14:39:00,80.4,64.0,29.93,WSW,241,13.0,18.0,57,0.00,,,0.00,weatherlink.com 1.10,2013-10-01 19:39:00,
2013-10-01 14:54:00,80.8,64.0,29.93,WSW,242,9.0,16.0,57,0.00,,,0.00,weatherlink.com 1.10,2013-10-01 19:54:00,
2013-10-01 15:09:00,80.6,64.0,29.92,WSW,252,7.0,15.0,57,0.00,,,0.00,weatherlink.com 1.10,2013-10-01 20:09:00,
2013-10-01 15:24:00,81.4,64.0,29.91,SW,223,13.0,16.0,56,0.00,,,0.00,weatherlink.com 1.10,2013-10-01 20:24:00,
2013-10-01 15:39:00,82.0,64.0,29.91,SW,234,9.0,16.0,54,0.00,,,0.00,weatherlink.com 1.10,2013-10-01 20:39:00,
2013-10-01 15:54:00,82.1,64.0,29.91,WSW,242,8.0,17.0,54,0.00,,,0.00,weatherlink.com 1.10,2013-10-01 20:54:00,
2013-10-01 16:10:00,81.2,63.0,29.91,SW,234,9.0,15.0,54,0.00,,,0.00,weatherlink.com 1.10,2013-10-01 21:10:00,
2013-10-01 16:24:00,81.1,63.0,29.91,SW,218,8.0,17.0,55,0.00,,,0.00,weatherlink.com 1.10,2013-10-01 21:24:00,
2013-10-01 16:54:00,80.8,63.0,29.91,SSW,207,4.0,12.0,55,0.00,,,0.00,weatherlink.com 1.10,2013-10-01 21:54:00,
2013-10-01 17:09:00,80.5,63.0,29.91,SW,232,10.0,15.0,56,0.00,,,0.00,weatherlink.com 1.10,2013-10-01 22:09:00,
2013-10-01 17:24:00,79.4,63.0,29.91,WSW,241,6.0,15.0,58,0.00,,,0.00,weatherlink.com 1.10,2013-10-01 22:24:00,
2013-10-01 17:39:00,78.4,63.0,29.91,WSW,251,5.0,15.0,60,0.00,,,0.00,weatherlink.com 1.10,2013-10-01 22:39:00,
2013-10-01 17:54:00,77.4,63.0,29.91,WSW,244,5.0,10.0,61,0.00,,,0.00,weatherlink.com 1.10,2013-10-01 22:54:00,
2013-10-01 18:09:00,76.6,63.0,29.90,SW,236,4.0,10.0,63,0.00,,,0.00,weatherlink.com 1.10,2013-10-01 23:09:00,
2013-10-01 18:24:00,75.4,63.0,29.91,WSW,245,3.0,8.0,65,0.00,,,0.00,weatherlink.com 1.10,2013-10-01 23:24:00,
2013-10-01 18:39:00,73.3,63.0,29.91,WSW,249,0.0,3.0,69,0.00,,,0.00,weatherlink.com 1.10,2013-10-01 23:39:00,
2013-10-01 18:54:00,71.4,62.0,29.92,WSW,250,0.0,2.0,73,0.00,,,0.00,weatherlink.com 1.10,2013-10-01 23:54:00,
2013-10-01 19:09:00,69.9,63.0,29.93,WSW,250,0.0,1.0,78,0.00,,,0.00,weatherlink.com 1.10,2013-10-02 00:09:00,
2013-10-01 19:24:00,68.8,62.0,29.93,WSW,250,0.0,1.0,80,0.00,,,0.00,weatherlink.com 1.10,2013-10-02 00:24:00,
2013-10-01 19:39:00,67.9,62.0,29.93,WSW,250,0.0,2.0,80,0.00,,,0.00,weatherlink.com 1.10,2013-10-02 00:39:00,
2013-10-01 19:54:00,66.3,61.0,29.94,WSW,250,0.0,1.0,82,0.00,,,0.00,weatherlink.com 1.10,2013-10-02 00:54:00,
2013-10-01 20:09:00,65.3,60.0,29.94,WSW,249,1.0,2.0,83,0.00,,,0.00,weatherlink.com 1.10,2013-10-02 01:09:00,
2013-10-01 20:24:00,65.1,61.0,29.94,WSW,254,3.0,4.0,85,0.00,,,0.00,weatherlink.com 1.10,2013-10-02 01:24:00,
2013-10-01 20:39:00,66.4,63.0,29.94,WSW,257,7.0,9.0,87,0.00,,,0.00,weatherlink.com 1.10,2013-10-02 01:39:00,
2013-10-01 20:54:00,68.8,64.0,29.95,WSW,238,8.0,11.0,83,0.00,,,0.00,weatherlink.com 1.10,2013-10-02 01:54:00,
2013-10-01 21:09:00,69.8,64.0,29.95,SW,223,5.0,11.0,82,0.00,,,0.00,weatherlink.com 1.10,2013-10-02 02:09:00,
2013-10-01 21:24:00,69.5,64.0,29.95,West,271,2.0,11.0,83,0.00,,,0.00,weatherlink.com 1.10,2013-10-02 02:24:00,
2013-10-01 21:39:00,69.0,64.0,29.95,WSW,249,4.0,10.0,84,0.00,,,0.00,weatherlink.com 1.10,2013-10-02 02:39:00,
2013-10-01 21:54:00,68.1,64.0,29.96,SW,234,4.0,9.0,85,0.00,,,0.00,weatherlink.com 1.10,2013-10-02 02:54:00,
2013-10-01 22:09:00,67.4,64.0,29.96,WSW,248,2.0,7.0,87,0.00,,,0.00,weatherlink.com 1.10,2013-10-02 03:09:00,
2013-10-01 22:24:00,66.6,63.0,29.96,WSW,245,3.0,7.0,88,0.00,,,0.00,weatherlink.com 1.10,2013-10-02 03:24:00,
2013-10-01 22:39:00,66.2,63.0,29.96,WSW,242,3.0,7.0,90,0.00,,,0.00,weatherlink.com 1.10,2013-10-02 03:39:00,
2013-10-01 22:54:00,66.2,63.0,29.96,SW,231,4.0,7.0,90,0.00,,,0.00,weatherlink.com 1.10,2013-10-02 03:54:00,
2013-10-01 23:09:00,66.1,64.0,29.96,WSW,244,3.0,6.0,91,0.00,,,0.00,weatherlink.com 1.10,2013-10-02 04:09:00,
2013-10-01 23:24:00,66.0,63.0,29.96,WSW,250,3.0,6.0,91,0.00,,,0.00,weatherlink.com 1.10,2013-10-02 04:24:00,
2013-10-01 23:39:00,65.8,63.0,29.96,SW,234,3.0,7.0,91,0.00,,,0.00,weatherlink.com 1.10,2013-10-02 04:39:00,
2013-10-01 23:54:00,65.8,64.0,29.96,SW,236,4.0,6.0,92,0.00,,,0.00,weatherlink.com 1.10,2013-10-02 04:54:00,